EXS81B EGAA-GCTS

Flight info

Callsign EXS81B
Flight time 3h 55m
Altitude 34000
Route MAC DCT DEGOS DCT TUGSI DCT TISMO/M078F340 DCT LASNO T9 BEGAS/N0449F340 DCT RIPEL/N0455F350 DCT MIMBO DCT VEDEL DCT TABAX DCT PECKY DCT EKNOT DCT ORTIS
Aircraft B738/M-SDE2E3FGHIRWXY/LB1

Departure

Time 2026-04-28 12:59
Airport Belfast International Airport (EGAA)

Arrival

Time 2026-04-28 16:55
Airport Tenerife Sur Airport (GCTS)
Time Latitude Longitude Altitude Speed Heading
2026-04-28 12:29 54.66058 -6.21785 275 ft 0 kts 285°
2026-04-28 12:51 54.66053 -6.21752 275 ft 4 kts 284°
2026-04-28 12:51 54.66046 -6.21707 272 ft 4 kts 288°
2026-04-28 12:51 54.66041 -6.21678 271 ft 4 kts 294°
2026-04-28 12:51 54.66028 -6.21650 271 ft 4 kts 320°
2026-04-28 12:52 54.66006 -6.21628 271 ft 4 kts 342°
2026-04-28 12:52 54.65981 -6.21611 271 ft 4 kts 330°
2026-04-28 12:52 54.65958 -6.21588 271 ft 4 kts 329°
2026-04-28 12:52 54.65948 -6.21578 271 ft 0 kts 327°
2026-04-28 12:54 54.65950 -6.21585 271 ft 1 kts 291°
2026-04-28 12:54 54.65939 -6.21607 273 ft 5 kts 225°
2026-04-28 12:55 54.65904 -6.21688 274 ft 12 kts 243°
2026-04-28 12:55 54.65859 -6.21853 271 ft 18 kts 245°
2026-04-28 12:55 54.65804 -6.22059 273 ft 19 kts 245°
2026-04-28 12:55 54.65768 -6.22270 271 ft 18 kts 263°
2026-04-28 12:56 54.65754 -6.22482 271 ft 17 kts 263°
2026-04-28 12:56 54.65743 -6.22687 271 ft 17 kts 266°
2026-04-28 12:56 54.65717 -6.22877 271 ft 16 kts 243°
2026-04-28 12:56 54.65654 -6.23034 271 ft 16 kts 234°
2026-04-28 12:57 54.65591 -6.23181 271 ft 15 kts 233°
2026-04-28 12:57 54.65528 -6.23315 271 ft 14 kts 217°
2026-04-28 12:57 54.65439 -6.23384 273 ft 14 kts 201°
2026-04-28 12:57 54.65350 -6.23387 271 ft 13 kts 158°
2026-04-28 12:58 54.65294 -6.23284 271 ft 13 kts 85°
2026-04-28 12:58 54.65347 -6.23071 271 ft 41 kts 65°
2026-04-28 12:58 54.65564 -6.22266 271 ft 105 kts 65°
2026-04-28 12:58 54.65949 -6.20824 273 ft 158 kts 66°
2026-04-28 12:59 54.66442 -6.19025 786 ft 165 kts 65°
2026-04-28 12:59 54.66864 -6.17191 1581 ft 164 kts 85°
2026-04-28 12:59 54.66600 -6.15258 2149 ft 178 kts 123°
2026-04-28 12:59 54.65599 -6.13833 2568 ft 199 kts 154°
2026-04-28 13:00 54.64231 -6.13303 3125 ft 207 kts 178°
2026-04-28 13:00 54.62787 -6.13827 3491 ft 225 kts 206°
2026-04-28 13:00 54.61535 -6.15658 3738 ft 244 kts 226°
2026-04-28 13:00 54.60347 -6.17838 4211 ft 254 kts 226°
2026-04-28 13:01 54.59082 -6.20165 4492 ft 276 kts 226°
2026-04-28 13:01 54.57746 -6.22606 5189 ft 280 kts 225°
2026-04-28 13:01 54.56396 -6.25052 5932 ft 283 kts 225°
2026-04-28 13:01 54.55021 -6.27523 6647 ft 287 kts 225°
2026-04-28 13:02 54.53627 -6.30014 7332 ft 290 kts 225°
2026-04-28 13:02 54.52213 -6.32526 8018 ft 294 kts 224°
2026-04-28 13:02 54.50780 -6.35064 8670 ft 298 kts 225°
2026-04-28 13:02 54.49321 -6.37640 9333 ft 302 kts 225°
2026-04-28 13:03 54.47861 -6.40213 10000 ft 306 kts 225°
2026-04-28 13:03 54.46342 -6.42885 10637 ft 311 kts 225°
2026-04-28 13:03 54.44791 -6.45607 10883 ft 330 kts 225°
2026-04-28 13:03 54.43158 -6.48469 11049 ft 350 kts 225°
2026-04-28 13:04 54.41406 -6.51535 11200 ft 370 kts 225°
2026-04-28 13:04 54.39564 -6.54755 11452 ft 385 kts 225°
2026-04-28 13:04 54.37670 -6.58063 11947 ft 391 kts 225°
2026-04-28 13:04 54.35753 -6.61407 12549 ft 395 kts 225°
2026-04-28 13:05 54.33817 -6.64778 13128 ft 399 kts 225°
2026-04-28 13:05 54.31854 -6.68192 13676 ft 404 kts 224°
2026-04-28 13:05 54.29868 -6.71640 14259 ft 409 kts 224°
2026-04-28 13:05 54.27861 -6.75120 14806 ft 412 kts 224°
2026-04-28 13:06 54.25838 -6.78623 15351 ft 415 kts 224°
2026-04-28 13:06 54.23801 -6.82146 15894 ft 418 kts 224°
2026-04-28 13:06 54.21745 -6.85695 16406 ft 422 kts 224°
2026-04-28 13:06 54.19673 -6.89266 16913 ft 426 kts 224°
2026-04-28 13:07 54.17526 -6.92777 17433 ft 428 kts 221°
2026-04-28 13:07 54.15275 -6.96125 17954 ft 431 kts 219°
2026-04-28 13:07 54.12976 -6.99431 18450 ft 434 kts 219°
2026-04-28 13:07 54.10657 -7.02761 18905 ft 438 kts 219°
2026-04-28 13:08 54.08329 -7.06130 19351 ft 440 kts 219°
2026-04-28 13:08 54.05998 -7.09534 19813 ft 443 kts 220°
2026-04-28 13:08 54.03654 -7.12962 20256 ft 445 kts 220°
2026-04-28 13:08 54.01213 -7.16236 20655 ft 448 kts 212°
2026-04-28 13:09 53.98482 -7.18806 21062 ft 449 kts 202°
2026-04-28 13:09 53.95544 -7.20587 21517 ft 448 kts 193°
2026-04-28 13:09 53.92533 -7.21956 21934 ft 450 kts 192°
2026-04-28 13:09 53.89533 -7.23286 22315 ft 453 kts 192°
2026-04-28 13:10 53.86471 -7.24643 22713 ft 455 kts 192°
2026-04-28 13:10 53.83399 -7.26019 23111 ft 458 kts 192°
2026-04-28 13:10 53.80314 -7.27415 23502 ft 460 kts 193°
2026-04-28 13:10 53.77212 -7.28831 23899 ft 463 kts 193°
2026-04-28 13:11 53.74092 -7.30261 24183 ft 467 kts 193°
2026-04-28 13:11 53.70947 -7.31704 24456 ft 469 kts 193°
2026-04-28 13:11 53.67793 -7.33153 24802 ft 470 kts 193°
2026-04-28 13:11 53.64629 -7.34604 25107 ft 472 kts 193°
2026-04-28 13:12 53.61452 -7.36058 25391 ft 475 kts 193°
2026-04-28 13:12 53.58259 -7.37517 25675 ft 477 kts 193°
2026-04-28 13:12 53.55048 -7.38981 25954 ft 479 kts 193°
2026-04-28 13:12 53.51824 -7.40448 26233 ft 481 kts 193°
2026-04-28 13:13 53.48626 -7.41901 26489 ft 484 kts 193°
2026-04-28 13:13 53.45323 -7.43399 26730 ft 487 kts 193°
2026-04-28 13:13 53.42092 -7.44862 26994 ft 488 kts 193°
2026-04-28 13:13 53.38808 -7.46347 27267 ft 490 kts 193°
2026-04-28 13:14 53.35509 -7.47836 27524 ft 492 kts 193°
2026-04-28 13:14 53.32197 -7.49329 27768 ft 494 kts 193°
2026-04-28 13:14 53.28874 -7.50824 27999 ft 496 kts 193°
2026-04-28 13:14 53.25536 -7.52324 28235 ft 498 kts 193°
2026-04-28 13:15 53.22177 -7.53831 28468 ft 500 kts 193°
2026-04-28 13:15 53.18811 -7.55338 28700 ft 501 kts 193°
2026-04-28 13:15 53.15442 -7.56844 28985 ft 502 kts 193°
2026-04-28 13:15 53.12071 -7.58350 29348 ft 501 kts 193°
2026-04-28 13:16 53.08715 -7.59846 29712 ft 499 kts 193°
2026-04-28 13:16 53.05355 -7.61342 30031 ft 499 kts 193°
2026-04-28 13:16 53.01999 -7.62832 30307 ft 500 kts 193°
2026-04-28 13:16 52.98640 -7.64322 30626 ft 498 kts 193°
2026-04-28 13:17 52.95297 -7.65802 30890 ft 498 kts 193°
2026-04-28 13:17 52.91948 -7.67282 31140 ft 498 kts 193°
2026-04-28 13:17 52.88604 -7.68758 31413 ft 497 kts 193°
2026-04-28 13:17 52.85266 -7.70229 31693 ft 496 kts 193°
2026-04-28 13:18 52.81938 -7.71693 31957 ft 495 kts 193°
2026-04-28 13:18 52.78612 -7.73154 32193 ft 495 kts 192°
2026-04-28 13:18 52.75286 -7.74612 32455 ft 494 kts 192°
2026-04-28 13:18 52.72005 -7.76049 32656 ft 495 kts 192°
2026-04-28 13:19 52.68674 -7.77505 32857 ft 495 kts 192°
2026-04-28 13:19 52.65351 -7.78955 33128 ft 494 kts 192°
2026-04-28 13:19 52.62035 -7.80401 33415 ft 492 kts 192°
2026-04-28 13:19 52.58728 -7.81840 33703 ft 490 kts 192°
2026-04-28 13:20 52.55437 -7.83270 33972 ft 489 kts 192°
2026-04-28 13:20 52.52154 -7.84695 34203 ft 488 kts 192°
2026-04-28 13:20 52.48861 -7.86121 34391 ft 489 kts 192°
2026-04-28 13:21 52.42250 -7.88975 34399 ft 492 kts 192°
2026-04-28 13:21 52.35636 -7.91825 34384 ft 490 kts 192°
2026-04-28 13:22 52.29063 -7.94649 34371 ft 487 kts 192°
2026-04-28 13:22 52.22520 -7.97451 34393 ft 485 kts 192°
2026-04-28 13:23 52.15999 -8.00235 34389 ft 484 kts 192°
2026-04-28 13:23 52.09450 -8.02710 34384 ft 482 kts 187°
2026-04-28 13:24 52.02845 -8.04647 34392 ft 483 kts 186°
2026-04-28 13:24 51.96212 -8.06526 34375 ft 485 kts 186°
2026-04-28 13:25 51.89553 -8.08465 34381 ft 487 kts 187°
2026-04-28 13:25 51.82866 -8.10448 34377 ft 489 kts 187°
2026-04-28 13:26 51.76197 -8.12431 34412 ft 491 kts 187°
2026-04-28 13:26 51.69459 -8.14427 34388 ft 493 kts 187°
2026-04-28 13:27 51.62700 -8.16421 34371 ft 494 kts 187°
2026-04-28 13:27 51.55925 -8.18413 34375 ft 495 kts 187°
2026-04-28 13:28 51.49150 -8.20398 34368 ft 495 kts 187°
2026-04-28 13:28 51.42385 -8.22375 34362 ft 494 kts 187°
2026-04-28 13:29 51.35625 -8.24345 34370 ft 493 kts 187°
2026-04-28 13:29 51.28881 -8.26304 34365 ft 492 kts 187°
2026-04-28 13:30 51.22142 -8.28255 34370 ft 491 kts 187°
2026-04-28 13:30 51.15460 -8.30184 34369 ft 491 kts 187°
2026-04-28 13:31 51.05383 -8.33082 34365 ft 490 kts 187°
2026-04-28 13:31 50.98662 -8.35007 34369 ft 491 kts 186°
2026-04-28 13:32 50.91934 -8.36929 34371 ft 492 kts 186°
2026-04-28 13:32 50.85199 -8.38848 34362 ft 492 kts 186°
2026-04-28 13:33 50.78445 -8.40766 34359 ft 493 kts 186°
2026-04-28 13:33 50.71684 -8.42681 34358 ft 494 kts 186°
2026-04-28 13:34 50.64908 -8.44597 34348 ft 494 kts 187°
2026-04-28 13:34 50.58143 -8.46501 34348 ft 493 kts 187°
2026-04-28 13:35 50.51378 -8.48399 34352 ft 493 kts 187°
2026-04-28 13:35 50.44658 -8.50280 34341 ft 493 kts 187°
2026-04-28 13:36 50.37905 -8.52165 34338 ft 493 kts 187°
2026-04-28 13:36 50.31154 -8.54044 34351 ft 493 kts 187°
2026-04-28 13:37 50.24404 -8.55917 34340 ft 493 kts 187°
2026-04-28 13:37 50.17638 -8.57789 34334 ft 493 kts 187°
2026-04-28 13:38 50.10874 -8.59655 34330 ft 494 kts 187°
2026-04-28 13:38 50.04098 -8.61519 34334 ft 495 kts 187°
2026-04-28 13:39 49.97303 -8.63383 34331 ft 496 kts 187°
2026-04-28 13:39 49.90496 -8.65245 34328 ft 497 kts 187°
2026-04-28 13:40 49.83685 -8.67103 34323 ft 498 kts 187°
2026-04-28 13:40 49.78009 -8.68648 34313 ft 498 kts 187°
2026-04-28 13:41 49.71176 -8.70502 34313 ft 499 kts 187°
2026-04-28 13:41 49.64336 -8.72352 34303 ft 499 kts 187°
2026-04-28 13:42 49.57492 -8.74199 34305 ft 500 kts 187°
2026-04-28 13:42 49.50638 -8.76043 34301 ft 500 kts 187°
2026-04-28 13:43 49.43785 -8.77882 34289 ft 500 kts 187°
2026-04-28 13:43 49.36923 -8.79717 34303 ft 501 kts 187°
2026-04-28 13:44 49.30056 -8.81549 34298 ft 501 kts 187°
2026-04-28 13:44 49.23181 -8.83378 34288 ft 501 kts 187°
2026-04-28 13:45 49.16302 -8.85202 34298 ft 502 kts 187°
2026-04-28 13:45 49.09410 -8.87025 34254 ft 502 kts 187°
2026-04-28 13:46 49.02579 -8.88827 34274 ft 501 kts 187°
2026-04-28 13:46 48.95708 -8.90635 34288 ft 500 kts 187°
2026-04-28 13:47 48.88846 -8.92435 34268 ft 500 kts 187°
2026-04-28 13:47 48.81989 -8.94228 34264 ft 500 kts 187°
2026-04-28 13:48 48.75139 -8.96015 34263 ft 499 kts 187°
2026-04-28 13:48 48.68286 -8.97799 34264 ft 500 kts 187°
2026-04-28 13:49 48.61427 -8.99577 34260 ft 500 kts 187°
2026-04-28 13:49 48.54530 -9.00271 34272 ft 495 kts 176°
2026-04-28 13:50 48.47633 -9.00150 34259 ft 496 kts 175°
2026-04-28 13:50 48.40771 -9.00030 34249 ft 497 kts 176°
2026-04-28 13:51 48.33855 -8.99989 34250 ft 498 kts 176°
2026-04-28 13:51 48.26915 -8.99988 34251 ft 499 kts 176°
2026-04-28 13:52 48.19963 -8.99996 34247 ft 500 kts 176°
2026-04-28 13:52 48.12996 -8.99999 34242 ft 501 kts 176°
2026-04-28 13:53 48.06019 -9.00000 34238 ft 502 kts 177°
2026-04-28 13:53 47.99024 -9.00000 34231 ft 503 kts 177°
2026-04-28 13:54 47.92024 -9.00000 34226 ft 503 kts 177°
2026-04-28 13:54 47.85017 -9.00000 34234 ft 503 kts 177°
2026-04-28 13:55 47.78010 -9.00000 34220 ft 504 kts 177°
2026-04-28 13:55 47.70993 -9.00000 34217 ft 504 kts 177°
2026-04-28 13:56 47.63985 -9.00000 34220 ft 503 kts 177°
2026-04-28 13:56 47.56981 -9.00000 34208 ft 503 kts 177°
2026-04-28 13:57 47.50024 -9.00000 34204 ft 503 kts 177°
2026-04-28 13:57 47.43022 -9.00000 34207 ft 503 kts 178°
2026-04-28 13:58 47.36020 -9.00000 34194 ft 503 kts 178°
2026-04-28 13:58 47.29026 -9.00000 34196 ft 503 kts 178°
2026-04-28 13:59 47.22032 -9.00000 34203 ft 502 kts 178°
2026-04-28 13:59 47.15041 -9.00001 34190 ft 502 kts 178°
2026-04-28 14:00 47.08051 -9.00000 34185 ft 502 kts 178°
2026-04-28 14:00 47.01075 -9.00000 34186 ft 501 kts 178°
2026-04-28 14:01 46.94120 -9.00001 34172 ft 500 kts 178°
2026-04-28 14:01 46.87168 -9.00001 34173 ft 499 kts 178°
2026-04-28 14:02 46.80241 -9.00001 34169 ft 497 kts 178°
2026-04-28 14:02 46.73340 -9.00001 34160 ft 495 kts 178°
2026-04-28 14:03 46.66535 -9.00001 34156 ft 493 kts 178°
2026-04-28 14:03 46.59686 -9.00001 34165 ft 490 kts 178°
2026-04-28 14:04 46.52870 -9.00001 34152 ft 488 kts 178°
2026-04-28 14:04 46.46099 -9.00001 34151 ft 485 kts 178°
2026-04-28 14:05 46.39362 -9.00001 34152 ft 483 kts 178°
2026-04-28 14:05 46.32646 -9.00001 34152 ft 482 kts 178°
2026-04-28 14:06 46.25947 -9.00001 34144 ft 481 kts 178°
2026-04-28 14:06 46.19249 -9.00001 34153 ft 481 kts 178°
2026-04-28 14:07 46.12553 -9.00000 34131 ft 481 kts 178°
2026-04-28 14:07 46.05856 -9.00001 34135 ft 481 kts 178°
2026-04-28 14:08 45.99164 -9.00000 34140 ft 479 kts 179°
2026-04-28 14:08 45.92573 -9.00001 34120 ft 466 kts 179°
2026-04-28 14:09 45.86142 -9.00001 34126 ft 466 kts 180°
2026-04-28 14:09 45.79623 -9.00000 34128 ft 470 kts 180°
2026-04-28 14:10 45.73077 -9.00000 34125 ft 469 kts 180°
2026-04-28 14:10 45.66581 -9.00000 34103 ft 464 kts 180°
2026-04-28 14:11 45.60130 -9.00000 34108 ft 463 kts 180°
2026-04-28 14:11 45.53698 -8.99998 34096 ft 461 kts 179°
2026-04-28 14:12 45.47296 -8.99999 34101 ft 459 kts 180°
2026-04-28 14:12 45.40914 -9.00000 34091 ft 458 kts 180°
2026-04-28 14:13 45.34593 -9.00000 34093 ft 456 kts 180°
2026-04-28 14:13 45.28252 -9.00000 34083 ft 455 kts 180°
2026-04-28 14:14 45.21918 -9.00000 34087 ft 454 kts 181°
2026-04-28 14:14 45.15605 -9.00002 34089 ft 453 kts 181°
2026-04-28 14:15 45.09295 -9.00000 34075 ft 453 kts 181°
2026-04-28 14:15 45.03073 -9.00051 34075 ft 451 kts 185°
2026-04-28 14:16 44.96949 -9.02035 34073 ft 446 kts 205°
2026-04-28 14:16 44.91400 -9.05872 34069 ft 443 kts 208°
2026-04-28 14:17 44.85908 -9.09809 34060 ft 442 kts 208°
2026-04-28 14:17 44.80418 -9.13699 34068 ft 441 kts 208°
2026-04-28 14:18 44.74924 -9.17548 34056 ft 441 kts 207°
2026-04-28 14:18 44.69427 -9.21372 34050 ft 441 kts 207°
2026-04-28 14:19 44.63924 -9.25189 34060 ft 441 kts 207°
2026-04-28 14:19 44.58411 -9.29007 34061 ft 442 kts 207°
2026-04-28 14:20 44.52896 -9.32820 34049 ft 442 kts 206°
2026-04-28 14:20 44.47408 -9.36606 34040 ft 442 kts 206°
2026-04-28 14:21 44.41891 -9.40404 34042 ft 442 kts 206°
2026-04-28 14:21 44.36379 -9.44190 34045 ft 441 kts 207°
2026-04-28 14:22 44.30868 -9.47970 34029 ft 441 kts 206°
2026-04-28 14:22 44.25358 -9.51738 34030 ft 441 kts 206°
2026-04-28 14:23 44.19847 -9.55500 34037 ft 441 kts 205°
2026-04-28 14:23 44.14329 -9.59259 34035 ft 442 kts 205°
2026-04-28 14:24 44.08805 -9.63015 34014 ft 442 kts 205°
2026-04-28 14:24 44.03281 -9.66762 34012 ft 442 kts 206°
2026-04-28 14:25 43.97749 -9.70507 34017 ft 442 kts 205°
2026-04-28 14:25 43.92221 -9.74241 34005 ft 441 kts 205°
2026-04-28 14:26 43.86736 -9.77939 33993 ft 441 kts 205°
2026-04-28 14:26 43.81220 -9.81650 34003 ft 440 kts 205°
2026-04-28 14:27 43.75713 -9.85347 33998 ft 440 kts 204°
2026-04-28 14:27 43.70200 -9.89041 33985 ft 440 kts 205°
2026-04-28 14:28 43.64686 -9.92729 33985 ft 441 kts 205°
2026-04-28 14:28 43.59156 -9.96419 33991 ft 442 kts 204°
2026-04-28 14:29 43.53611 -10.00107 33980 ft 442 kts 204°
2026-04-28 14:29 43.48060 -10.03798 33971 ft 443 kts 204°
2026-04-28 14:30 43.42507 -10.07482 33965 ft 443 kts 204°
2026-04-28 14:30 43.37884 -10.10539 33962 ft 443 kts 204°
2026-04-28 14:31 43.31448 -10.14790 33961 ft 440 kts 205°
2026-04-28 14:31 43.26847 -10.17827 33940 ft 436 kts 205°
2026-04-28 14:32 43.21394 -10.21422 33954 ft 436 kts 204°
2026-04-28 14:32 43.15887 -10.25032 33971 ft 441 kts 204°
2026-04-28 14:33 43.10414 -10.28615 33941 ft 436 kts 204°
2026-04-28 14:33 43.04974 -10.32178 33930 ft 430 kts 204°
2026-04-28 14:34 42.96864 -10.37470 33930 ft 432 kts 204°
2026-04-28 14:35 42.91421 -10.41013 33923 ft 433 kts 204°
2026-04-28 14:35 42.85981 -10.44542 33933 ft 432 kts 204°
2026-04-28 14:36 42.80571 -10.48055 33915 ft 430 kts 205°
2026-04-28 14:36 42.75172 -10.51546 33921 ft 430 kts 204°
2026-04-28 14:37 42.69741 -10.55051 33939 ft 434 kts 204°
2026-04-28 14:37 42.64253 -10.58589 33937 ft 439 kts 204°
2026-04-28 14:38 42.58729 -10.62142 33914 ft 438 kts 204°
2026-04-28 14:38 42.53234 -10.65670 33918 ft 435 kts 204°
2026-04-28 14:39 42.47770 -10.69173 33910 ft 433 kts 204°
2026-04-28 14:39 42.42334 -10.72652 33912 ft 431 kts 204°
2026-04-28 14:40 42.36912 -10.76113 33919 ft 431 kts 204°
2026-04-28 14:40 42.31493 -10.79567 33912 ft 431 kts 204°
2026-04-28 14:41 42.26128 -10.83218 33907 ft 433 kts 209°
2026-04-28 14:41 42.20973 -10.87337 33911 ft 434 kts 210°
2026-04-28 14:42 42.15777 -10.91535 33914 ft 436 kts 210°
2026-04-28 14:42 42.10548 -10.95715 33920 ft 438 kts 209°
2026-04-28 14:43 42.05281 -10.99892 33911 ft 440 kts 209°
2026-04-28 14:43 41.99991 -11.04074 33913 ft 442 kts 209°
2026-04-28 14:44 41.94683 -11.08262 33907 ft 443 kts 209°
2026-04-28 14:44 41.89357 -11.12458 33912 ft 444 kts 209°
2026-04-28 14:45 41.84023 -11.16651 33914 ft 444 kts 209°
2026-04-28 14:45 41.78687 -11.20839 33906 ft 444 kts 209°
2026-04-28 14:46 41.73363 -11.25009 33907 ft 443 kts 209°
2026-04-28 14:46 41.68054 -11.29159 33907 ft 441 kts 209°
2026-04-28 14:47 41.62796 -11.33263 33933 ft 440 kts 209°
2026-04-28 14:47 41.57509 -11.37380 33916 ft 439 kts 209°
2026-04-28 14:48 41.52227 -11.41482 33911 ft 439 kts 209°
2026-04-28 14:48 41.46948 -11.45575 33914 ft 439 kts 209°
2026-04-28 14:49 41.41671 -11.49660 33919 ft 439 kts 209°
2026-04-28 14:49 41.36393 -11.53739 33920 ft 439 kts 209°
2026-04-28 14:50 41.31112 -11.57813 33920 ft 439 kts 209°
2026-04-28 14:50 41.25826 -11.61883 33921 ft 439 kts 209°
2026-04-28 14:51 41.20537 -11.65948 33930 ft 439 kts 209°
2026-04-28 14:51 41.15246 -11.70006 33927 ft 440 kts 209°
2026-04-28 14:52 41.09943 -11.74066 33928 ft 440 kts 209°
2026-04-28 14:52 41.04640 -11.78118 33924 ft 440 kts 209°
2026-04-28 14:53 40.99364 -11.82142 33918 ft 440 kts 209°
2026-04-28 14:53 40.94053 -11.86186 33925 ft 440 kts 209°
2026-04-28 14:54 40.88738 -11.90224 33929 ft 440 kts 209°
2026-04-28 14:54 40.83419 -11.94259 33932 ft 440 kts 209°
2026-04-28 14:55 40.78100 -11.98285 33935 ft 440 kts 209°
2026-04-28 14:55 40.72783 -12.02304 33934 ft 440 kts 209°
2026-04-28 14:56 40.67465 -12.06315 33936 ft 440 kts 209°
2026-04-28 14:56 40.62143 -12.10321 33949 ft 440 kts 209°
2026-04-28 14:57 40.56816 -12.14324 33938 ft 441 kts 209°
2026-04-28 14:57 40.51489 -12.18320 33933 ft 441 kts 209°
2026-04-28 14:58 40.46160 -12.22310 33937 ft 441 kts 210°
2026-04-28 14:58 40.40824 -12.26298 33952 ft 441 kts 210°
2026-04-28 14:59 40.35525 -12.30250 33955 ft 441 kts 210°
2026-04-28 14:59 40.30184 -12.34227 33943 ft 442 kts 210°
2026-04-28 15:00 40.24842 -12.38197 33965 ft 442 kts 210°
2026-04-28 15:00 40.19495 -12.42164 33915 ft 442 kts 211°
2026-04-28 15:01 40.14146 -12.46123 33935 ft 442 kts 211°
2026-04-28 15:01 40.08775 -12.50095 33918 ft 444 kts 211°
2026-04-28 15:02 40.03389 -12.54069 33928 ft 445 kts 210°
2026-04-28 15:02 39.97985 -12.58049 33927 ft 446 kts 210°
2026-04-28 15:03 39.92565 -12.62035 33936 ft 447 kts 210°
2026-04-28 15:03 39.87138 -12.66018 33925 ft 448 kts 210°
2026-04-28 15:04 39.81644 -12.69860 33929 ft 448 kts 208°
2026-04-28 15:04 39.76085 -12.73416 33934 ft 448 kts 207°
2026-04-28 15:05 39.70489 -12.76975 33941 ft 448 kts 208°
2026-04-28 15:05 39.64896 -12.80569 33953 ft 448 kts 207°
2026-04-28 15:06 39.59303 -12.84183 33946 ft 450 kts 208°
2026-04-28 15:06 39.53696 -12.87808 33948 ft 451 kts 208°
2026-04-28 15:07 39.48068 -12.91434 33940 ft 452 kts 208°
2026-04-28 15:07 39.42422 -12.95067 33953 ft 454 kts 208°
2026-04-28 15:08 39.36761 -12.98702 33954 ft 455 kts 208°
2026-04-28 15:08 39.31092 -13.02336 33949 ft 455 kts 208°
2026-04-28 15:09 39.25413 -13.05968 33945 ft 455 kts 208°
2026-04-28 15:09 39.19773 -13.09570 33956 ft 455 kts 208°
2026-04-28 15:10 39.14097 -13.13188 33956 ft 455 kts 208°
2026-04-28 15:10 39.08415 -13.16805 33958 ft 456 kts 210°
2026-04-28 15:11 39.02726 -13.20418 33944 ft 456 kts 211°
2026-04-28 15:11 38.97025 -13.24032 33967 ft 457 kts 211°
2026-04-28 15:12 38.91307 -13.27651 33971 ft 459 kts 211°
2026-04-28 15:12 38.85573 -13.31273 33968 ft 460 kts 211°
2026-04-28 15:13 38.79813 -13.34904 33936 ft 461 kts 212°
2026-04-28 15:13 38.74049 -13.38532 33966 ft 462 kts 212°
2026-04-28 15:14 38.68264 -13.42168 33979 ft 464 kts 212°
2026-04-28 15:14 38.62465 -13.45805 33973 ft 465 kts 212°
2026-04-28 15:15 38.56653 -13.49443 33953 ft 465 kts 212°
2026-04-28 15:15 38.50834 -13.53079 33976 ft 466 kts 213°
2026-04-28 15:16 38.45038 -13.56695 33985 ft 467 kts 213°
2026-04-28 15:16 38.39185 -13.60340 33988 ft 469 kts 213°
2026-04-28 15:17 38.33312 -13.63990 33979 ft 470 kts 213°
2026-04-28 15:17 38.27423 -13.67644 33985 ft 471 kts 213°
2026-04-28 15:18 38.21527 -13.71296 33987 ft 472 kts 213°
2026-04-28 15:18 38.15613 -13.74940 33979 ft 473 kts 211°
2026-04-28 15:19 38.09450 -13.77996 33993 ft 478 kts 206°
2026-04-28 15:19 38.03154 -13.80774 33983 ft 477 kts 206°
2026-04-28 15:20 37.96890 -13.83555 33988 ft 477 kts 206°
2026-04-28 15:20 37.90687 -13.86366 33970 ft 476 kts 206°
2026-04-28 15:21 37.84465 -13.89209 33989 ft 475 kts 206°
2026-04-28 15:21 37.78250 -13.92049 33982 ft 475 kts 206°
2026-04-28 15:22 37.73042 -13.94422 33995 ft 475 kts 206°
2026-04-28 15:22 37.66822 -13.97251 34000 ft 475 kts 206°
2026-04-28 15:23 37.60599 -14.00076 33988 ft 476 kts 206°
2026-04-28 15:23 37.54405 -14.02882 34002 ft 476 kts 206°
2026-04-28 15:24 37.48168 -14.05702 34000 ft 476 kts 206°
2026-04-28 15:24 37.41923 -14.08521 34002 ft 477 kts 206°
2026-04-28 15:25 37.35674 -14.11336 33992 ft 477 kts 206°
2026-04-28 15:25 37.29426 -14.14146 34002 ft 477 kts 206°
2026-04-28 15:26 37.23172 -14.16954 34006 ft 477 kts 206°
2026-04-28 15:26 37.16923 -14.19755 34000 ft 477 kts 206°
2026-04-28 15:27 37.10664 -14.22555 33985 ft 477 kts 206°
2026-04-28 15:27 37.04412 -14.25348 33999 ft 476 kts 205°
2026-04-28 15:28 36.98206 -14.28114 34007 ft 476 kts 205°
2026-04-28 15:28 36.91961 -14.30894 34005 ft 477 kts 205°
2026-04-28 15:29 36.85713 -14.33670 34006 ft 477 kts 205°
2026-04-28 15:29 36.79464 -14.36442 34000 ft 476 kts 205°
2026-04-28 15:30 36.73214 -14.39209 34012 ft 476 kts 205°
2026-04-28 15:30 36.66966 -14.41971 34011 ft 476 kts 205°
2026-04-28 15:31 36.60716 -14.44729 34015 ft 476 kts 205°
2026-04-28 15:31 36.54466 -14.47481 34004 ft 476 kts 205°
2026-04-28 15:32 36.48216 -14.50229 34011 ft 476 kts 205°
2026-04-28 15:32 36.41967 -14.52972 34016 ft 476 kts 205°
2026-04-28 15:33 36.35714 -14.55713 34018 ft 477 kts 205°
2026-04-28 15:33 36.29461 -14.58448 34008 ft 476 kts 205°
2026-04-28 15:34 36.23215 -14.61176 34013 ft 476 kts 205°
2026-04-28 15:34 36.16980 -14.63894 34017 ft 475 kts 205°
2026-04-28 15:35 36.10746 -14.66607 34021 ft 474 kts 205°
2026-04-28 15:35 36.01414 -14.70661 34021 ft 473 kts 205°
2026-04-28 15:36 35.95199 -14.73354 34023 ft 473 kts 205°
2026-04-28 15:36 35.88991 -14.76041 34022 ft 473 kts 204°
2026-04-28 15:37 35.82777 -14.78725 34021 ft 473 kts 204°
2026-04-28 15:37 35.76567 -14.81403 34020 ft 472 kts 204°
2026-04-28 15:38 35.70358 -14.84077 34026 ft 473 kts 204°
2026-04-28 15:38 35.64143 -14.86749 34024 ft 473 kts 204°
2026-04-28 15:39 35.57926 -14.89417 34028 ft 473 kts 204°
2026-04-28 15:39 35.51741 -14.92066 34030 ft 474 kts 204°
2026-04-28 15:40 35.45530 -14.94723 34022 ft 474 kts 204°
2026-04-28 15:40 35.39296 -14.97385 34022 ft 474 kts 204°
2026-04-28 15:41 35.33069 -15.00039 34031 ft 473 kts 204°
2026-04-28 15:41 35.26850 -15.02687 34024 ft 473 kts 204°
2026-04-28 15:42 35.20643 -15.05324 34031 ft 472 kts 204°
2026-04-28 15:42 35.14435 -15.07958 34033 ft 472 kts 204°
2026-04-28 15:43 35.08233 -15.10585 34033 ft 471 kts 204°
2026-04-28 15:43 35.02036 -15.13206 34034 ft 471 kts 204°
2026-04-28 15:44 34.95843 -15.15821 34035 ft 471 kts 204°
2026-04-28 15:44 34.89646 -15.18433 34035 ft 471 kts 204°
2026-04-28 15:45 34.83450 -15.21041 34036 ft 471 kts 204°
2026-04-28 15:45 34.77300 -15.23625 34019 ft 471 kts 203°
2026-04-28 15:46 34.71103 -15.26226 34035 ft 471 kts 203°
2026-04-28 15:46 34.64901 -15.28824 34037 ft 471 kts 203°
2026-04-28 15:47 34.58701 -15.31418 34036 ft 472 kts 203°
2026-04-28 15:47 34.52489 -15.34012 34031 ft 472 kts 203°
2026-04-28 15:48 34.46273 -15.36609 34042 ft 472 kts 203°
2026-04-28 15:48 34.40063 -15.39204 34048 ft 472 kts 203°
2026-04-28 15:49 34.33846 -15.41799 34048 ft 473 kts 203°
2026-04-28 15:49 34.27622 -15.44392 34045 ft 473 kts 203°
2026-04-28 15:50 34.21401 -15.46979 34038 ft 473 kts 203°
2026-04-28 15:50 34.15179 -15.49563 34048 ft 473 kts 203°
2026-04-28 15:51 34.08950 -15.52145 34048 ft 473 kts 203°
2026-04-28 15:51 34.02722 -15.54723 34046 ft 473 kts 203°
2026-04-28 15:52 33.96530 -15.57282 34037 ft 473 kts 202°
2026-04-28 15:52 33.90307 -15.59851 34047 ft 473 kts 202°
2026-04-28 15:53 33.84075 -15.62418 34044 ft 473 kts 202°
2026-04-28 15:53 33.77850 -15.64979 34034 ft 472 kts 202°
2026-04-28 15:54 33.71637 -15.67531 34041 ft 471 kts 202°
2026-04-28 15:54 33.65435 -15.70075 34046 ft 471 kts 202°
2026-04-28 15:55 33.59240 -15.72612 34051 ft 470 kts 202°
2026-04-28 15:55 33.53060 -15.75139 34051 ft 469 kts 202°
2026-04-28 15:56 33.46885 -15.77660 34051 ft 468 kts 202°
2026-04-28 15:56 33.40722 -15.80173 34051 ft 468 kts 202°
2026-04-28 15:57 33.34561 -15.82680 34052 ft 467 kts 202°
2026-04-28 15:57 33.28410 -15.85181 34050 ft 467 kts 202°
2026-04-28 15:58 33.22294 -15.87663 34052 ft 467 kts 202°
2026-04-28 15:58 33.16139 -15.90157 34043 ft 467 kts 202°
2026-04-28 15:59 33.11024 -15.92228 34051 ft 467 kts 202°
2026-04-28 15:59 33.03828 -15.95135 34055 ft 467 kts 202°
2026-04-28 16:00 32.97668 -15.97621 34057 ft 467 kts 202°
2026-04-28 16:00 32.91505 -16.00104 34048 ft 468 kts 202°
2026-04-28 16:01 32.85348 -16.02580 34049 ft 467 kts 202°
2026-04-28 16:01 32.79197 -16.05050 34051 ft 466 kts 202°
2026-04-28 16:02 32.73064 -16.07510 34056 ft 465 kts 202°
2026-04-28 16:02 32.66983 -16.09946 34056 ft 464 kts 201°
2026-04-28 16:03 32.60830 -16.12407 34044 ft 463 kts 201°
2026-04-28 16:03 32.54774 -16.14825 34054 ft 462 kts 201°
2026-04-28 16:04 32.48691 -16.17251 34057 ft 461 kts 201°
2026-04-28 16:04 32.43599 -16.19280 34057 ft 461 kts 201°
2026-04-28 16:05 32.36535 -16.22089 34060 ft 461 kts 201°
2026-04-28 16:05 32.30460 -16.24502 34060 ft 461 kts 201°
2026-04-28 16:06 32.24384 -16.26912 34061 ft 461 kts 201°
2026-04-28 16:06 32.18292 -16.29325 34060 ft 461 kts 201°
2026-04-28 16:07 32.12150 -16.31576 34061 ft 463 kts 199°
2026-04-28 16:08 32.03883 -16.34320 34062 ft 463 kts 199°
2026-04-28 16:08 31.97688 -16.36399 34064 ft 463 kts 199°
2026-04-28 16:09 31.88413 -16.39553 34061 ft 461 kts 199°
2026-04-28 16:10 31.79209 -16.42682 34047 ft 460 kts 199°
2026-04-28 16:10 31.69998 -16.45806 34062 ft 459 kts 199°
2026-04-28 16:11 31.57750 -16.49949 34062 ft 457 kts 199°
2026-04-28 16:12 31.48580 -16.53045 34060 ft 457 kts 199°
2026-04-28 16:13 31.39275 -16.55507 34064 ft 462 kts 185°
2026-04-28 16:14 31.26392 -16.54287 34060 ft 466 kts 177°
2026-04-28 16:15 31.13472 -16.52890 34067 ft 467 kts 177°
2026-04-28 16:15 31.07001 -16.52227 34065 ft 467 kts 177°
2026-04-28 16:16 30.97278 -16.51234 34057 ft 468 kts 177°
2026-04-28 16:17 30.87537 -16.50238 34062 ft 468 kts 177°
2026-04-28 16:17 30.81082 -16.49579 34064 ft 469 kts 177°
2026-04-28 16:18 30.74584 -16.48916 34061 ft 469 kts 177°
2026-04-28 16:18 30.68087 -16.48254 34059 ft 468 kts 177°
2026-04-28 16:19 30.61593 -16.47594 34067 ft 468 kts 177°
2026-04-28 16:19 30.55106 -16.46935 34062 ft 468 kts 177°
2026-04-28 16:20 30.48619 -16.46277 34060 ft 468 kts 177°
2026-04-28 16:20 30.42135 -16.45621 34067 ft 467 kts 177°
2026-04-28 16:21 30.35659 -16.44965 34070 ft 467 kts 177°
2026-04-28 16:21 30.29189 -16.44312 34063 ft 467 kts 177°
2026-04-28 16:22 30.22722 -16.43659 34065 ft 466 kts 177°
2026-04-28 16:22 30.16256 -16.43008 34055 ft 466 kts 177°
2026-04-28 16:23 30.09798 -16.42358 34060 ft 466 kts 177°
2026-04-28 16:23 30.03386 -16.41714 34060 ft 465 kts 177°
2026-04-28 16:24 29.96928 -16.41066 34060 ft 465 kts 177°
2026-04-28 16:24 29.90481 -16.40419 34052 ft 465 kts 177°
2026-04-28 16:25 29.84026 -16.39773 34058 ft 465 kts 177°
2026-04-28 16:25 29.77577 -16.39128 34065 ft 466 kts 177°
2026-04-28 16:26 29.71115 -16.38483 34063 ft 466 kts 177°
2026-04-28 16:26 29.64650 -16.37839 34063 ft 467 kts 177°
2026-04-28 16:27 29.61418 -16.37844 34046 ft 463 kts 191°
2026-04-28 16:27 29.58338 -16.38788 34074 ft 457 kts 205°
2026-04-28 16:27 29.53111 -16.42742 34079 ft 450 kts 223°
2026-04-28 16:28 29.50717 -16.45053 34063 ft 450 kts 223°
2026-04-28 16:28 29.45918 -16.49697 34059 ft 451 kts 223°
2026-04-28 16:29 29.38656 -16.56598 34062 ft 452 kts 222°
2026-04-28 16:30 29.31350 -16.63463 34063 ft 453 kts 222°
2026-04-28 16:30 29.26483 -16.68026 34064 ft 452 kts 222°
2026-04-28 16:31 29.21608 -16.72592 34058 ft 452 kts 221°
2026-04-28 16:31 29.16744 -16.77143 34069 ft 452 kts 221°
2026-04-28 16:32 29.11913 -16.81658 34067 ft 451 kts 221°
2026-04-28 16:32 29.04619 -16.88465 34068 ft 451 kts 221°
2026-04-28 16:33 29.00546 -16.92260 34066 ft 451 kts 221°
2026-04-28 16:33 28.97324 -16.95259 33957 ft 452 kts 221°
2026-04-28 16:33 28.94886 -16.97528 33587 ft 450 kts 221°
2026-04-28 16:34 28.92474 -16.99768 33131 ft 445 kts 221°
2026-04-28 16:34 28.90091 -17.01980 32740 ft 439 kts 221°
2026-04-28 16:34 28.87730 -17.04172 32297 ft 435 kts 221°
2026-04-28 16:34 28.85392 -17.06341 31875 ft 431 kts 221°
2026-04-28 16:35 28.83073 -17.08492 31459 ft 427 kts 221°
2026-04-28 16:35 28.80777 -17.10620 31048 ft 424 kts 221°
2026-04-28 16:35 28.78498 -17.12732 30638 ft 421 kts 221°
2026-04-28 16:35 28.76233 -17.14828 30234 ft 418 kts 221°
2026-04-28 16:36 28.73985 -17.16909 29769 ft 415 kts 221°
2026-04-28 16:36 28.71751 -17.18975 29310 ft 411 kts 221°
2026-04-28 16:36 28.69540 -17.21018 28878 ft 407 kts 221°
2026-04-28 16:36 28.67351 -17.23041 28461 ft 403 kts 221°
2026-04-28 16:37 28.65182 -17.25043 28040 ft 400 kts 221°
2026-04-28 16:37 28.63032 -17.27027 27625 ft 396 kts 221°
2026-04-28 16:37 28.60896 -17.28998 27196 ft 394 kts 221°
2026-04-28 16:38 28.56692 -17.32873 26392 ft 388 kts 221°
2026-04-28 16:38 28.54602 -17.34799 26002 ft 386 kts 221°
2026-04-28 16:38 28.52521 -17.36714 25612 ft 383 kts 221°
2026-04-28 16:38 28.50454 -17.38614 25225 ft 381 kts 221°
2026-04-28 16:39 28.48227 -17.40206 24947 ft 377 kts 201°
2026-04-28 16:39 28.45667 -17.40709 24489 ft 374 kts 179°
2026-04-28 16:39 28.43136 -17.40187 24139 ft 369 kts 161°
2026-04-28 16:39 28.40872 -17.38881 23793 ft 363 kts 145°
2026-04-28 16:40 28.39009 -17.36972 23350 ft 362 kts 127°
2026-04-28 16:40 28.37643 -17.34570 23209 ft 364 kts 120°
2026-04-28 16:40 28.36351 -17.32007 22752 ft 384 kts 120°
2026-04-28 16:40 28.34921 -17.29414 22279 ft 389 kts 129°
2026-04-28 16:41 28.33093 -17.27221 21832 ft 386 kts 138°
2026-04-28 16:41 28.31117 -17.25188 21377 ft 382 kts 139°
2026-04-28 16:41 28.29148 -17.23184 20889 ft 378 kts 139°
2026-04-28 16:41 28.27201 -17.21198 20298 ft 375 kts 139°
2026-04-28 16:42 28.25266 -17.19214 19636 ft 375 kts 139°
2026-04-28 16:42 28.23339 -17.17231 18973 ft 374 kts 139°
2026-04-28 16:42 28.21409 -17.15239 18167 ft 377 kts 139°
2026-04-28 16:42 28.19458 -17.13223 17273 ft 380 kts 139°
2026-04-28 16:43 28.17501 -17.11199 16397 ft 381 kts 138°
2026-04-28 16:43 28.15542 -17.09172 15537 ft 382 kts 138°
2026-04-28 16:43 28.13580 -17.07143 14702 ft 381 kts 138°
2026-04-28 16:43 28.11619 -17.05116 13849 ft 381 kts 138°
2026-04-28 16:44 28.09661 -17.03094 12873 ft 381 kts 138°
2026-04-28 16:44 28.07700 -17.01068 11923 ft 381 kts 139°
2026-04-28 16:44 28.05742 -16.99048 11012 ft 380 kts 139°
2026-04-28 16:44 28.03794 -16.97037 10315 ft 374 kts 139°
2026-04-28 16:45 28.01877 -16.95158 9994 ft 356 kts 148°
2026-04-28 16:45 27.99679 -16.94219 9948 ft 326 kts 177°
2026-04-28 16:45 27.97557 -16.94534 9909 ft 297 kts 206°
2026-04-28 16:45 27.96029 -16.95896 9879 ft 270 kts 239°
2026-04-28 16:46 27.95483 -16.97794 9828 ft 247 kts 272°
2026-04-28 16:46 27.95982 -16.99586 9478 ft 240 kts 308°
2026-04-28 16:46 27.97327 -17.00621 9177 ft 237 kts 345°
2026-04-28 16:46 27.98965 -17.00510 8696 ft 244 kts 22°
2026-04-28 16:47 28.00246 -16.99258 8224 ft 249 kts 60°
2026-04-28 16:47 28.00619 -16.97373 7730 ft 250 kts 97°
2026-04-28 16:47 27.99963 -16.95595 7287 ft 245 kts 125°
2026-04-28 16:47 27.98935 -16.94065 6812 ft 243 kts 129°
2026-04-28 16:48 27.97875 -16.92584 6328 ft 241 kts 129°
2026-04-28 16:48 27.96826 -16.91113 5822 ft 239 kts 128°
2026-04-28 16:48 27.95791 -16.89649 5318 ft 237 kts 128°
2026-04-28 16:48 27.94794 -16.88203 4829 ft 235 kts 122°
2026-04-28 16:49 27.94341 -16.86475 4274 ft 231 kts 84°
2026-04-28 16:49 27.94855 -16.84796 3822 ft 225 kts 62°
2026-04-28 16:49 27.95485 -16.83199 3433 ft 220 kts 67°
2026-04-28 16:49 27.96031 -16.81609 3107 ft 212 kts 67°
2026-04-28 16:50 27.96550 -16.80087 2840 ft 203 kts 68°
2026-04-28 16:50 27.97054 -16.78622 2582 ft 198 kts 66°
2026-04-28 16:50 27.97549 -16.77187 2315 ft 194 kts 65°
2026-04-28 16:50 27.98032 -16.75788 2143 ft 187 kts 65°
2026-04-28 16:51 27.98514 -16.74395 2119 ft 190 kts 64°
2026-04-28 16:51 27.98994 -16.73005 2119 ft 188 kts 66°
2026-04-28 16:51 27.99468 -16.71631 2100 ft 184 kts 66°
2026-04-28 16:51 27.99930 -16.70296 2080 ft 177 kts 64°
2026-04-28 16:52 28.00377 -16.69045 2078 ft 167 kts 68°
2026-04-28 16:52 28.00791 -16.67827 1921 ft 164 kts 69°
2026-04-28 16:52 28.01197 -16.66636 1693 ft 160 kts 69°
2026-04-28 16:52 28.01596 -16.65479 1472 ft 156 kts 70°
2026-04-28 16:53 28.01982 -16.64341 1246 ft 155 kts 70°
2026-04-28 16:53 28.02369 -16.63209 1038 ft 154 kts 69°
2026-04-28 16:53 28.02773 -16.62078 842 ft 156 kts 70°
2026-04-28 16:53 28.03165 -16.60930 638 ft 157 kts 69°
2026-04-28 16:54 28.03568 -16.59775 406 ft 158 kts 71°
2026-04-28 16:54 28.03966 -16.58632 216 ft 154 kts 70°
2026-04-28 16:54 28.04323 -16.57604 188 ft 117 kts 68°
2026-04-28 16:54 28.04486 -16.57134 196 ft 77 kts 69°
2026-04-28 16:55 28.04646 -16.56677 202 ft 24 kts 67°
2026-04-28 16:55 28.04738 -16.56530 211 ft 23 kts 47°
2026-04-28 16:55 28.04848 -16.56405 213 ft 22 kts 43°
2026-04-28 16:55 28.04896 -16.56359 218 ft 12 kts 23°
2026-04-28 16:56 28.04934 -16.56398 221 ft 9 kts 260°
2026-04-28 16:56 28.04912 -16.56470 219 ft 12 kts 249°
2026-04-28 16:56 28.04877 -16.56570 219 ft 16 kts 248°
2026-04-28 16:56 28.04828 -16.56708 211 ft 20 kts 249°
2026-04-28 16:57 28.04773 -16.56865 211 ft 22 kts 248°
2026-04-28 16:57 28.04718 -16.57023 221 ft 20 kts 249°
2026-04-28 16:57 28.04693 -16.57120 222 ft 10 kts 281°
2026-04-28 16:57 28.04749 -16.57164 218 ft 10 kts 336°
2026-04-28 16:58 28.04780 -16.57229 223 ft 14 kts 253°
2026-04-28 16:58 28.04738 -16.57351 216 ft 18 kts 248°
2026-04-28 16:58 28.04686 -16.57493 216 ft 20 kts 246°
2026-04-28 16:58 28.04634 -16.57637 220 ft 19 kts 249°
2026-04-28 16:59 28.04608 -16.57739 221 ft 9 kts 292°
2026-04-28 16:59 28.04657 -16.57772 216 ft 7 kts 338°
2026-04-28 16:59 28.04677 -16.57781 225 ft 0 kts 338°